TimeCST,TemperatureF,Dew PointF,Humidity,Sea Level PressureIn,VisibilityMPH,Wind Direction,Wind SpeedMPH,Gust SpeedMPH,PrecipitationIn,Events,Conditions,WindDirDegrees,DateUTC
12:15 AM,11.7,8.4,87,30.29,10.0,Calm,Calm,-,N/A,,Clear,0,2013-02-16 06:15:00
12:35 AM,10.8,7.3,86,30.29,10.0,Calm,Calm,-,N/A,,Clear,0,2013-02-16 06:35:00
12:55 AM,10.2,6.6,85,30.28,10.0,Calm,Calm,-,N/A,,Clear,0,2013-02-16 06:55:00
1:15 AM,10.6,7.5,87,30.27,10.0,SW,3.5,-,N/A,,Clear,230,2013-02-16 07:15:00
1:35 AM,11.1,7.7,86,30.27,10.0,Calm,Calm,-,N/A,,Clear,0,2013-02-16 07:35:00
1:55 AM,10.9,7.7,87,30.27,10.0,SW,3.5,-,N/A,,Clear,220,2013-02-16 07:55:00
2:15 AM,11.8,8.2,85,30.26,10.0,WSW,3.5,-,N/A,,Clear,250,2013-02-16 08:15:00
2:35 AM,11.1,7.7,86,30.26,10.0,Calm,Calm,-,N/A,,Clear,0,2013-02-16 08:35:00
2:55 AM,10.8,7.5,87,30.25,10.0,SW,3.5,-,N/A,,Clear,230,2013-02-16 08:55:00
3:15 AM,10.9,7.7,87,30.24,10.0,WSW,3.5,-,N/A,,Clear,240,2013-02-16 09:15:00
3:35 AM,10.9,7.7,87,30.23,10.0,SW,3.5,-,N/A,,Clear,230,2013-02-16 09:35:00
3:55 AM,10.9,7.7,87,30.23,10.0,SW,3.5,-,N/A,,Clear,230,2013-02-16 09:55:00
4:15 AM,11.1,7.9,87,30.23,10.0,SW,3.5,-,N/A,,Clear,220,2013-02-16 10:15:00
4:35 AM,10.9,7.9,87,30.22,10.0,Calm,Calm,-,N/A,,Clear,0,2013-02-16 10:35:00
4:55 AM,11.3,8.6,89,30.21,10.0,Calm,Calm,-,N/A,,Clear,0,2013-02-16 10:55:00
5:15 AM,11.7,8.8,88,30.20,10.0,SW,3.5,-,N/A,,Clear,220,2013-02-16 11:15:00
5:35 AM,10.9,8.1,88,30.20,10.0,SSW,3.5,-,N/A,,Clear,200,2013-02-16 11:35:00
6:15 AM,11.3,8.6,89,30.19,10.0,South,3.5,-,N/A,,Clear,180,2013-02-16 12:15:00
6:35 AM,11.1,8.6,90,30.19,10.0,SSE,3.5,-,N/A,,Clear,160,2013-02-16 12:35:00
6:55 AM,10.8,8.2,90,30.18,10.0,South,3.5,-,N/A,,Clear,170,2013-02-16 12:55:00
7:15 AM,9.9,7.5,90,30.17,10.0,South,3.5,-,N/A,,Clear,190,2013-02-16 13:15:00
7:35 AM,9.5,7.3,91,30.16,10.0,Calm,Calm,-,N/A,,Clear,0,2013-02-16 13:35:00
7:55 AM,11.3,9.1,91,30.16,10.0,SE,4.6,-,N/A,,Clear,140,2013-02-16 13:55:00
8:15 AM,12.7,10.2,90,30.16,10.0,SSE,4.6,-,N/A,,Clear,160,2013-02-16 14:15:00
8:35 AM,14.0,11.3,89,30.16,10.0,SSE,5.8,-,N/A,,Clear,160,2013-02-16 14:35:00
8:55 AM,15.4,12.4,88,30.16,10.0,South,5.8,-,N/A,,Clear,190,2013-02-16 14:55:00
9:15 AM,17.1,14.0,88,30.16,10.0,SSE,6.9,-,N/A,,Clear,160,2013-02-16 15:15:00
9:35 AM,18.5,14.7,85,30.15,10.0,South,4.6,-,N/A,,Clear,180,2013-02-16 15:35:00
12:35 PM,32.0,18.0,56,30.08,10.0,SSW,11.5,-,N/A,,Clear,210,2013-02-16 18:35:00
12:55 PM,32.5,17.6,54,30.08,10.0,SW,8.1,-,N/A,,Clear,220,2013-02-16 18:55:00
1:15 PM,33.4,17.6,52,30.06,10.0,South,8.1,-,N/A,,Clear,190,2013-02-16 19:15:00
1:35 PM,34.2,16.7,49,30.06,10.0,SW,5.8,9.2,N/A,,Clear,220,2013-02-16 19:35:00
1:55 PM,34.5,17.8,50,30.05,10.0,SSW,5.8,-,N/A,,Clear,200,2013-02-16 19:55:00
2:15 PM,34.7,18.1,51,30.04,10.0,South,4.6,-,N/A,,Clear,170,2013-02-16 20:15:00
2:35 PM,34.9,18.9,52,30.03,10.0,SSW,6.9,-,N/A,,Clear,210,2013-02-16 20:35:00
2:55 PM,35.6,19.0,51,30.03,10.0,SSW,3.5,-,N/A,,Clear,200,2013-02-16 20:55:00
3:15 PM,36.0,19.8,52,30.03,10.0,South,6.9,-,N/A,,Clear,190,2013-02-16 21:15:00
3:35 PM,35.6,19.2,51,30.03,10.0,SW,9.2,-,N/A,,Mostly Cloudy,220,2013-02-16 21:35:00
3:55 PM,36.7,19.2,49,30.03,10.0,SW,9.2,-,N/A,,Mostly Cloudy,230,2013-02-16 21:55:00
4:15 PM,35.8,20.1,53,30.03,10.0,SW,9.2,-,N/A,,Scattered Clouds,230,2013-02-16 22:15:00
4:35 PM,33.4,19.2,56,30.03,10.0,SW,8.1,-,N/A,,Clear,220,2013-02-16 22:35:00
4:55 PM,32.9,20.5,60,30.03,10.0,SSW,8.1,-,N/A,,Scattered Clouds,210,2013-02-16 22:55:00
5:15 PM,32.0,20.8,63,30.03,10.0,SSW,6.9,-,N/A,,Scattered Clouds,210,2013-02-16 23:15:00
5:35 PM,31.1,21.4,67,30.04,10.0,SW,4.6,-,N/A,,Scattered Clouds,220,2013-02-16 23:35:00
5:55 PM,30.6,22.5,72,30.04,10.0,SSW,4.6,-,N/A,,Mostly Cloudy,200,2013-02-16 23:55:00
6:15 PM,30.2,22.1,72,30.04,10.0,South,3.5,-,N/A,,Overcast,190,2013-02-17 00:15:00
6:35 PM,30.2,23.5,76,30.05,10.0,South,4.6,-,N/A,,Overcast,190,2013-02-17 00:35:00
6:55 PM,30.2,23.0,75,30.05,10.0,Calm,Calm,-,N/A,,Overcast,0,2013-02-17 00:55:00
7:15 PM,30.2,23.4,76,30.04,10.0,SSW,3.5,-,N/A,,Overcast,210,2013-02-17 01:15:00
7:35 PM,30.0,23.5,77,30.04,10.0,South,3.5,-,N/A,,Overcast,190,2013-02-17 01:35:00
7:55 PM,29.1,23.0,78,30.04,10.0,SSE,3.5,-,N/A,,Scattered Clouds,160,2013-02-17 01:55:00
8:15 PM,28.4,22.8,80,30.03,10.0,SE,4.6,-,N/A,,Clear,140,2013-02-17 02:15:00
8:35 PM,27.9,22.5,80,30.03,10.0,SSE,4.6,-,N/A,,Clear,150,2013-02-17 02:35:00
8:55 PM,27.0,22.1,82,30.03,10.0,SE,3.5,-,N/A,,Clear,140,2013-02-17 02:55:00
9:15 PM,25.9,21.9,85,30.03,10.0,SSE,3.5,-,N/A,,Clear,150,2013-02-17 03:15:00
9:35 PM,25.7,21.9,86,30.03,10.0,SSE,3.5,-,N/A,,Clear,150,2013-02-17 03:35:00
9:55 PM,25.7,22.1,86,30.03,10.0,South,3.5,-,N/A,,Clear,170,2013-02-17 03:55:00
10:15 PM,23.7,20.1,86,30.03,10.0,SSE,3.5,-,N/A,,Clear,160,2013-02-17 04:15:00
10:35 PM,25.2,21.2,85,30.02,10.0,South,4.6,-,N/A,,Clear,170,2013-02-17 04:35:00
10:55 PM,25.0,20.8,84,30.02,10.0,SSE,4.6,-,N/A,,Clear,160,2013-02-17 04:55:00
11:15 PM,23.9,20.3,86,30.02,10.0,SSE,5.8,-,N/A,,Clear,160,2013-02-17 05:15:00
11:35 PM,23.7,20.3,87,30.02,10.0,Calm,Calm,-,N/A,,Clear,0,2013-02-17 05:35:00
11:55 PM,23.5,20.3,87,30.02,10.0,South,4.6,-,N/A,,Clear,170,2013-02-17 05:55:00